Regional Weather Roundup
Issued by NWS Newport/Morehead, NC

Current Version | Previous Version | Text Only | Print | Product List | Glossary On
Versions: 1 2 3 4 5 6 7 8 9 10 11 12 13 14 15 16 17 18 19 20 21 22 23 24 25 26 27 28 29 30 31 32 33 34 35 36 37 38 39 40 41 42 43 44 45 46 47 48 49 50
000 ASUS42 KMHX 041313 RWRMHX WEATHER ROUNDUP FOR EASTERN NORTH CAROLINA NATIONAL WEATHER SERVICE NEWPORT/MOREHEAD CITY NC 900 AM EDT SAT JUL 04 2015 NOTE: "FAIR" INDICATES FEW OR NO CLOUDS BELOW 12,000 FEET WITH NO SIGNIFICANT WEATHER AND/OR OBSTRUCTIONS TO VISIBILITY NCZ015>017-031-032-045>047-102-103-041400- NORTH COAST CITY SKY/WX TMP DP RH WIND PRES REMARKS EDENTON SUNNY 78 70 75 W10G17 29.94S ELIZABETH CITY PTSUNNY 77 72 84 W10G24 29.93S KITTY HAWK MOSUNNY 78 72 80 W12G24 29.92F MANTEO MOSUNNY 77 71 81 W14G20 29.94F $$ NCZ045>047-081-094-103-104-041400- CENTRAL COAST CITY SKY/WX TMP DP RH WIND PRES REMARKS FRISCO PTSUNNY 80 71 74 W14G29 29.97S SWANQUARTER N/A 79 N/A N/A W18G25 29.91F $$ NCZ095-097-098-100-101-041400- SOUTHERN COAST CITY SKY/WX TMP DP RH WIND PRES REMARKS BEAUFORT SUNNY 82 74 76 SW13 29.99S CEDAR ISLAND N/A 82 N/A N/A SW10G16 30.03S JACKSONVILLE NOT AVBL PINEY ISLAND MOSUNNY N/A N/A N/A SW16 29.98S WILMINGTON CLOUDY 81 67 62 W15G24 30.02R $$ NCZ011>013-027>030-043-044-078>080-089-090>093-098-041400- COASTAL PLAIN CITY SKY/WX TMP DP RH WIND PRES REMARKS AHOSKIE PTSUNNY N/A N/A N/A CALM 29.94S CLINTON MOSUNNY 78 71 79 SW6 29.99S ELIZABETHTOWN MOSUNNY 77 67 69 SW10G17 30.01R GOLDSBORO MOSUNNY 80 72 77 SW13G20 29.95S GREENVILLE SUNNY 79 72 78 W9 29.98S HAVELOCK SUNNY 83 71 67 SW12 29.99S KENANSVILLE FAIR 80 69 70 SW8G18 30.00R KINSTON SUNNY 81 70 69 SW10 29.98R NEW BERN SUNNY 81 71 71 W12G17 29.98F RICHLANDS MOSUNNY 82 70 65 SW17G25 29.99R ROCKY MOUNT SUNNY 79 69 71 SW12G22 29.95S WASHINGTON SUNNY 78 71 78 W10G16 29.96F WHITEVILLE MOSUNNY 79 67 68 SW10 30.03S $$ AMZ130-135-150-152-154-156-158-170-250-252-270-ANZ085-086-088-633-658-670-041400- MARINE OBSERVATIONS STATION/POSITION TIME TEMP WIND PRES WAVE SWELL AIR SEA DIR/SP/G HT/PER HT/PER (UTC) (F) (DEG/KT/KT) (MB) (FT/S) (FT/S) CHESAPEAKE LIGHT 1300 75 270/ 17/ 19 1012.5 64 E VA BEACH 1250 77 76 250/ 19/ 23 1011.6 6/ 5 2/15 DUCK 1200 77 67 260/ 20/ 25 N/A 2 E DUCK 1211 75 N/A 3/ 8 OREGON INLET 1200 77 78 240/ 16/ 20 1013.7 13E OREGON INLT 1300 69 N/A 5/ 7 HATTERAS CG 1200 79 76 250/ 16/ 23 1014.5 DIAMOND BUOY 1250 80 81 250/ 21/ 25 1014.8 8/ 7 2/15 CAPE LOOKOUT 1300 81 240/ 12/ 15 1015.4 BEAUFORT LAB 1200 80 80 250/ 8/ 15 1015.0 30 SE NEW RVR IN 1208 81 79 250/ 23/ 29 1017.0 27 SE WRIGHTSVLE 1200 80 260/ 19/ 23 N/A 5 SE WRIGHTSVLE NOT AVBL 225 S CAPE HAT 1250 81 80 230/ 12/ 14 1020.9 6/ 6 3/ 7 41 SE CHARLESTON 1250 81 81 240/ 16/ 17 1017.7 5/ 6 2/ 9 $$

USA.gov is the U.S. government's official web portal to all federal, state and local government web resources and services.